Key West, FL

5:28 PM EDT on July 25, 2017 (GMT -0400)
Key West International

Weather History for KEYW - July, 2014

Change the Weather History Date:

Wednesday, July 2, 2014

  Actual Average Record
Temperature  
Mean Temperature 87 °F 84 °F  
Max Temperature 89 °F 89 °F 96 °F (1881)
Min Temperature 84 °F 80 °F 69 °F (1888)
Degree Days  
Heating Degree Days 0 0  
Month to date heating degree days 0 0  
Since 1 June heating degree days 0 0  
Since 1 July heating degree days 0 0  
Cooling Degree Days 22 19  
Month to date cooling degree days 42 38  
Year to date cooling degree days 2222 2017  
Since 1 June cooling degree days 600 587  
Growing Degree Days 36 (Base 50)    
Moisture  
Dew Point 76 °F    
Average Humidity 72    
Maximum Humidity 80    
Minimum Humidity 64    
Precipitation  
Precipitation 0.00 in 0.13 in 4.12 in (1935)
Month to date precipitation 0.00 0.25  
Year to date precipitation 15.23 14.99  
Snow  
Snow 0.00 in - - ()
Month to date snowfall 0.0  
Since 1 June snowfall 0.0  
Since 1 July snowfall 0.0  
Snow Depth 0.00 in    
Sea Level Pressure  
Sea Level Pressure 29.98 in    
Wind  
Wind Speed 9 mph (WSW)    
Max Wind Speed 14 mph    
Max Gust Speed 17 mph    
Visibility 10 miles    
Events Thunderstorm    
T = Trace of Precipitation, MM = Missing Value Source: NWS Daily Summary

Daily Weather History Graph

Daily Weather History Graph

Search for Another Location

Airport or City:

Trip Planner

Search our weather history database for the weather conditions in past years. The results will help you decide how hot, cold, wet, or windy it might be!

Date:

Astronomy

Jul. 02, 2014 Rise Set
Actual Time 6:42 AM EDT 8:19 PM EDT
Civil Twilight 6:16 AM EDT 8:45 PM EDT
Nautical Twilight 5:45 AM EDT 9:16 PM EDT
Astronomical Twilight 5:13 AM EDT 9:48 PM EDT
Moon 11:12 AM EDT (7/2) 11:47 PM EDT (7/2)
Length of Visible Light 14h 28m
Length of Day
13h 37m
Waxing Crescent, 24% of the Moon is Illuminated
Jul 2
Waxing Crescent
Jul 5
First Quarter
Jul 12
Full
Jul 18
Last Quarter
Jul 26
New

Hourly Weather History & Observations

Time (EDT) Temp. Heat Index Dew Point Humidity Pressure Visibility Wind Dir Wind Speed Gust Speed Precip Events Conditions
12:53 AM 84.9 °F 95.3 °F 77.0 °F 77% 29.97 in 10.0 mi WNW 8.1 mph - N/A   Clear
1:53 AM 84.9 °F 94.1 °F 75.9 °F 74% 29.96 in 10.0 mi WNW 6.9 mph - N/A   Clear
2:25 AM 84.9 °F 93.3 °F 75.0 °F 72% 29.94 in 10.0 mi West 5.8 mph - N/A Thunderstorm Partly Cloudy
2:40 AM 84.9 °F 93.3 °F 75.0 °F 72% 29.94 in 10.0 mi West 4.6 mph - N/A   Scattered Clouds
2:53 AM 84.9 °F 94.1 °F 75.9 °F 74% 29.94 in 10.0 mi West 5.8 mph - N/A   Mostly Cloudy
3:00 AM 84.9 °F 94.1 °F 75.9 °F 74% 29.93 in 10.0 mi West 10.4 mph - N/A   Overcast
3:21 AM 84.9 °F 94.1 °F 75.9 °F 74% 29.93 in 10.0 mi WSW 10.4 mph - N/A   Scattered Clouds
3:53 AM 84.0 °F 92.6 °F 75.9 °F 76% 29.92 in 10.0 mi WSW 10.4 mph - N/A   Clear
4:53 AM 84.0 °F 91.9 °F 75.0 °F 74% 29.92 in 10.0 mi West 3.5 mph - N/A   Clear
5:53 AM 84.0 °F 92.6 °F 75.9 °F 76% 29.94 in 10.0 mi West 6.9 mph - N/A   Clear
6:53 AM 84.0 °F 92.6 °F 75.9 °F 76% 29.96 in 10.0 mi West 8.1 mph - N/A   Clear
7:53 AM 84.9 °F 94.1 °F 75.9 °F 74% 29.96 in 10.0 mi WSW 8.1 mph - N/A   Partly Cloudy
8:53 AM 86.0 °F 95.1 °F 75.0 °F 70% 29.99 in 10.0 mi WSW 9.2 mph - N/A   Scattered Clouds
9:53 AM 87.1 °F 98.8 °F 77.0 °F 72% 29.99 in 10.0 mi WSW 9.2 mph - N/A   Clear
10:40 AM 87.1 °F 98.8 °F 77.0 °F 72% 29.99 in 10.0 mi SW 10.4 mph - N/A Thunderstorm Partly Cloudy
10:53 AM 87.1 °F 98.8 °F 77.0 °F 72% 30.00 in 10.0 mi SW 10.4 mph - N/A   Partly Cloudy
11:53 AM 88.0 °F 98.5 °F 75.9 °F 67% 30.00 in 10.0 mi SW 11.5 mph - N/A   Clear
12:53 PM 88.0 °F 98.5 °F 75.9 °F 67% 30.01 in 10.0 mi SW 11.5 mph - N/A   Clear
1:53 PM 89.1 °F 100.2 °F 75.9 °F 65% 30.01 in 10.0 mi WSW 12.7 mph - N/A   Clear
2:53 PM 89.1 °F 100.2 °F 75.9 °F 65% 30.00 in 10.0 mi WSW 13.8 mph - N/A   Clear
3:53 PM 88.0 °F 98.5 °F 75.9 °F 67% 30.00 in 10.0 mi SW 10.4 mph - N/A   Clear
4:53 PM 87.8 °F 97.6 °F 75.2 °F 66% 29.99 in 10.0 mi WSW 9.2 mph - N/A   Clear
5:53 PM 88.0 °F 97.5 °F 75.0 °F 65% 29.98 in 10.0 mi SW 11.5 mph - N/A   Clear
6:53 PM 87.1 °F 97.3 °F 75.9 °F 69% 29.97 in 10.0 mi SW 6.9 mph - N/A   Clear
7:53 PM 86.0 °F 96.0 °F 75.9 °F 72% 29.98 in 10.0 mi WSW 8.1 mph - N/A   Clear
8:53 PM 84.9 °F 93.3 °F 75.0 °F 72% 30.00 in 10.0 mi WSW 6.9 mph - N/A   Clear
9:53 PM 84.9 °F 93.3 °F 75.0 °F 72% 30.02 in 10.0 mi South 4.6 mph - N/A   Clear
10:53 PM 84.9 °F 93.3 °F 75.0 °F 72% 30.03 in 10.0 mi SSW 4.6 mph - N/A   Clear
11:53 PM 84.9 °F 93.3 °F 75.0 °F 72% 30.02 in 10.0 mi SSW 9.2 mph - N/A   Clear